Location: Walton
(43.6794°N, 81.3017°W)
Time: 00:35:31
(UTC+00:00)

Cosmos 2180 Rocket - Pass Details

Date: 14 March 2026
Orbit: 952 x 1004 km, 82.9° (Epoch: 14 April)

Event Time Altitude Azimuth Distance (km) Brightness Sun altitude
Rises 10:33:11 0° 145° (SE) 3,680 7.9 -12.7°
Reaches altitude 10° 10:36:15 10° 131° (SE) 2,728 7.4 -12.2°
Maximum altitude 10:40:52 22° 83° (E) 1,984 7.3 -11.3°
Drops below altitude 10° 10:45:26 10° 35° (NE) 2,715 7.5 -10.5°
Sets 10:48:29 0° 21° (NNE) 3,658 7.9 -10.0°
